Regional Weather Roundup
Issued by NWS

Home | Current Version | Previous Version | Graphics & Text | Print | Product List | Glossary Off
Versions: 1 2 3 4 5 6 7 8 9 10 11 12 13 14 15 16 17 18 19 20 21 22 23 24 25 26 27 28 29 30 31 32 33 34 35 36 37 38 39 40 41 42 43 44 45 46 47 48 49 50

000
ASUS43 KTOP 280108
RWRKS

WEATHER ROUNDUP FOR KANSAS
NATIONAL WEATHER SERVICE GOODLAND KS
800 PM CDT SUN MAY 27 2018

NOTE:  "FAIR" INDICATES FEW OR NO CLOUDS BELOW 12,000 FEET WITH NO
SIGNIFICANT WEATHER AND/OR OBSTRUCTIONS TO VISIBILITY.

KSZ001>006-013>018-027>032-041>047-280200-
NORTHWEST KANSAS

CITY           SKY/WX    TMP DP  RH WIND       PRES   REMARKS
GOODLAND       CLOUDY    80  45  28 SE16G33   29.78R
HAYS           CLOUDY    84  61  45 SE13      29.82R
HILL CITY      CLOUDY    85  58  39 SE12G22   29.82R
RUSSELL        CLOUDY    85  56  37 S14       29.81S
$$

KSZ061>065-074>080-084>089-280200-
SOUTHWEST KANSAS

CITY           SKY/WX    TMP DP  RH WIND       PRES   REMARKS
DODGE CITY     CLEAR     87  61  41 SE23G36   29.83S
ELKHART        CLEAR     83  56  40 SE29G39   29.82R
GARDEN CITY    CLOUDY    87  61  41 S24G37    29.80S
GREAT BEND     CLOUDY    85  59  41 SE14      29.84R
LIBERAL        CLOUDY    79  63  57 SE16      29.82S
PRATT          CLOUDY    87  53  31 SE14G23   29.85R
$$

KSZ066>073-081>083-090>101-280200-
SOUTHEAST KANSAS

CITY           SKY/WX    TMP DP  RH WIND       PRES   REMARKS
CHANUTE        PTCLDY    84  71  65 SE6       29.87R
COFFEYVILLE    CLEAR     85  71  63 SE6       29.84S
HUTCHINSON     CLOUDY    86  58  38 SE10      29.84R
MEDICINE LODGE   N/A     86  58  38 SE8       29.83R
NEWTON         CLOUDY    83  67  58 SE10      29.87R
PARSONS        PTCLDY    84  70  62 SE3       29.87R
WICHITA INTL   CLOUDY    86  66  51 SE12      29.84R
WICHITA JABRA  CLOUDY    84  64  50 SE13      29.85R
WICHITA MCCONL CLOUDY    85  64  49 S10       29.85R
WINFIELD       CLOUDY    83  65  54 SE8       29.86R
$$

KSZ007>012-019>026-033>040-048>060-102>105-280200-
NORTHEAST KANSAS

CITY           SKY/WX    TMP DP  RH WIND       PRES   REMARKS
CONCORDIA      CLEAR     88  57  34 S15       29.82R
EMPORIA        CLEAR     83  69  62 SE9       29.87R
LAWRENCE       PTCLDY    87  71  58 S7        29.85R
MANHATTAN      CLEAR     89  65  44 S12       29.84R
OLATHE IND     MOCLDY    84  72  67 S3        29.88R
OLATHE EXE     MOCLDY    84  72  67 S5        29.87S
SALINA         CLOUDY    89  60  37 SE13      29.82R
TOPEKA BILLARD CLOUDY    89  69  51 S7        29.84R
TOPEKA FORBES  PTCLDY    89  69  51 SE7       29.86R
$$




USA.gov is the U.S. government's official web portal to all federal, state and local government web resources and services.